Weather History for Tulsa, OK

Change the Weather History Date:

Saturday, April 27, 2013

  Actual Average Record
Temperature  
Mean Temperature 55 °F 64 °F  
Max Temperature 57 °F 75 °F 92 °F (1966)
Min Temperature 52 °F 53 °F 36 °F (1920)
Degree Days  
Heating Degree Days 10 4  
Month to date heating degree days 283 178  
Since 1 July heating degree days 3490 3527  
Cooling Degree Days 0 3  
Month to date cooling degree days 11 44  
Year to date cooling degree days 17 56  
Growing Degree Days 4 (Base 50)    
Moisture  
Dew Point 52 °F    
Average Humidity 92    
Maximum Humidity 100    
Minimum Humidity 83    
Precipitation  
Precipitation 0.08 in 0.15 in 2.33 in (1998)
Month to date precipitation 3.35 3.30  
Year to date precipitation 9.17 10.10  
Sea Level Pressure  
Sea Level Pressure 30.05 in    
Wind  
Wind Speed 8 mph (NNW)    
Max Wind Speed 15 mph    
Max Gust Speed 19 mph    
Visibility 7 miles    
Events Rain , Thunderstorm    
T = Trace of Precipitation, MM = Missing Value Source: NWS Daily Summary

Daily Weather History Graph

Daily Weather History Graph

Search for Another Location

Airport:

Trip Planner

Search our weather history database for the weather conditions in past years. The results will help you decide how hot, cold, wet, or windy it might be!

Date:

Astronomy

Apr. 27, 2013 Rise Set
Actual Time 6:34 AM CDT 8:07 PM CDT
Civil Twilight 6:07 AM CDT 8:35 PM CDT
Nautical Twilight 5:34 AM CDT 9:08 PM CDT
Astronomical Twilight 5:00 AM CDT 9:42 PM CDT
Moon 10:35 PM CDT (4/27) 7:57 AM CDT (4/27)
Length of Visible Light 14h 27m
Length of Day
13h 33m
Waning Gibbous, 95% of the Moon is Illuminated
Apr 27
Waning Gibbous
May 2
Last Quarter
May 9
New
May 17
First Quarter
May 24
Full

Hourly Weather History & Observations

Time (CDT) Temp. Dew Point Humidity Pressure Visibility Wind Dir Wind Speed Gust Speed Precip Events Conditions
12:05 AM 53.1 °F 53.1 °F 100% 30.03 in 3.0 mi ESE 17.3 mph - 0.04 in Rain , Thunderstorm Light Thunderstorms and Rain
12:31 AM 53.1 °F 52.0 °F 96% 29.99 in 9.0 mi SE 18.4 mph 28.8 mph 0.07 in   Partly Cloudy
12:47 AM 53.6 °F 51.8 °F 94% 30.01 in 9.0 mi SE 15.0 mph - 0.07 in   Scattered Clouds
12:53 AM 53.1 °F 53.1 °F 100% 30.01 in 9.0 mi SSE 9.2 mph - 0.07 in   Mostly Cloudy
1:53 AM 54.0 °F 53.1 °F 97% 30.01 in 8.0 mi North 8.1 mph - N/A   Overcast
2:53 AM 53.1 °F 53.1 °F 100% 30.02 in 5.0 mi NNW 12.7 mph - N/A   Overcast
3:16 AM 53.1 °F 53.1 °F 100% 30.03 in 5.0 mi North 9.2 mph - N/A   Overcast
3:53 AM 53.1 °F 53.1 °F 100% 30.04 in 4.0 mi North 5.8 mph - 0.00 in Rain Light Rain
4:15 AM 53.1 °F 53.1 °F 100% 30.05 in 2.5 mi NE 3.5 mph - 0.03 in Rain Light Rain
4:24 AM 53.1 °F 53.1 °F 100% 30.04 in 4.0 mi NNE 4.6 mph - 0.04 in Rain Light Rain
4:53 AM 53.1 °F 53.1 °F 100% 30.03 in 3.0 mi North 3.5 mph - 0.04 in   Overcast
5:20 AM 53.1 °F 53.1 °F 100% 30.04 in 3.0 mi NNW 4.6 mph - N/A   Overcast
5:35 AM 53.1 °F 53.1 °F 100% 30.03 in 2.5 mi NNW 6.9 mph - 0.00 in   Light Drizzle
5:53 AM 52.0 °F 52.0 °F 100% 30.04 in 2.0 mi NNW 10.4 mph - 0.00 in   Light Drizzle
6:00 AM 52.0 °F 52.0 °F 100% 30.05 in 1.8 mi NNW 8.1 mph - 0.00 in Rain Light Rain
6:10 AM 52.0 °F 52.0 °F 100% 30.04 in 2.0 mi NNW 10.4 mph - 0.00 in Rain Light Rain
6:24 AM 52.0 °F 52.0 °F 100% 30.05 in 4.0 mi NNW 8.1 mph - 0.03 in Rain Light Rain
6:34 AM 52.0 °F 52.0 °F 100% 30.05 in 4.0 mi NNW 10.4 mph - 0.03 in Rain Light Rain
6:53 AM 52.0 °F 52.0 °F 100% 30.04 in 5.0 mi NNW 11.5 mph - 0.04 in Rain Light Rain
7:53 AM 52.0 °F 52.0 °F 100% 30.06 in 7.0 mi NNW 8.1 mph - 0.00 in   Overcast
8:53 AM 53.1 °F 52.0 °F 96% 30.07 in 10.0 mi NW 8.1 mph - N/A   Overcast
9:53 AM 53.1 °F 52.0 °F 96% 30.07 in 10.0 mi NNW 11.5 mph - N/A   Overcast
10:53 AM 54.0 °F 52.0 °F 93% 30.08 in 10.0 mi NW 11.5 mph - N/A   Overcast
11:08 AM 54.0 °F 52.0 °F 93% 30.08 in 10.0 mi NNW 12.7 mph - N/A   Overcast
11:49 AM 55.4 °F 51.8 °F 88% 30.09 in 10.0 mi NW 9.2 mph - N/A   Overcast
11:53 AM 54.0 °F 52.0 °F 93% 30.09 in 10.0 mi NW 11.5 mph - N/A   Overcast
12:53 PM 54.0 °F 51.1 °F 90% 30.09 in 10.0 mi NW 10.4 mph - N/A   Overcast
1:53 PM 55.9 °F 51.1 °F 84% 30.09 in 10.0 mi NW 11.5 mph - N/A   Overcast
2:31 PM 55.9 °F 51.1 °F 84% 30.09 in 10.0 mi WNW 8.1 mph - N/A   Overcast
2:53 PM 55.9 °F 51.1 °F 84% 30.08 in 10.0 mi NW 12.7 mph - N/A   Overcast
3:53 PM 55.9 °F 51.1 °F 84% 30.07 in 10.0 mi NNW 11.5 mph - N/A   Overcast
4:53 PM 55.9 °F 50.0 °F 80% 30.06 in 10.0 mi North 9.2 mph - N/A   Overcast
5:53 PM 55.9 °F 51.1 °F 84% 30.06 in 10.0 mi NNW 8.1 mph - N/A   Overcast
6:53 PM 55.9 °F 51.1 °F 84% 30.05 in 10.0 mi North 8.1 mph - N/A   Overcast
7:38 PM 55.9 °F 51.1 °F 84% 30.05 in 10.0 mi NNW 4.6 mph - N/A   Overcast
7:53 PM 55.9 °F 51.1 °F 84% 30.04 in 10.0 mi North 3.5 mph - N/A   Overcast
8:53 PM 55.0 °F 51.1 °F 86% 30.05 in 10.0 mi Calm Calm - N/A   Overcast
9:53 PM 55.0 °F 51.1 °F 86% 30.06 in 10.0 mi Calm Calm - N/A   Overcast
10:53 PM 55.0 °F 52.0 °F 89% 30.05 in 10.0 mi Calm Calm - N/A   Overcast
11:53 PM 55.0 °F 51.1 °F 86% 30.04 in 10.0 mi North 3.5 mph - N/A   Overcast